This is the latest recevied weather packets stored in our database for station/object KS5S. If no packets are shown the sender has not sent any weather packets the latest 1 day(s).
| Time | Temp. | Humidity | Pressure | Rain* | Wind** | Luminosity | Snow |
|---|---|---|---|---|---|---|---|
| 1836274685 | 27.22° C | 73% | 1014 hPa | 0 mm | 0.45 m/s, 164° | 0 W/m² | - |
| 1836274538 | 27.22° C | 74% | 1014.3 hPa | 0 mm | 1.79 m/s, 157° | 0 W/m² | - |
| 1836274383 | 27.22° C | 73% | 1014.1 hPa | 0 mm | 2.24 m/s, 151° | 0 W/m² | - |
| 1836274237 | 27.22° C | 74% | 1014.2 hPa | 0 mm | 2.24 m/s, 146° | 0 W/m² | - |
| 1836274081 | 27.22° C | 73% | 1014.1 hPa | 0 mm | 1.79 m/s, 153° | 0 W/m² | - |
| 1778058802 | 16.67° C | 81% | 1008.2 hPa | 0 mm | 1.79 m/s, 348° | 0 W/m² | - |
| 1778058499 | 16.67° C | 81% | 1007.9 hPa | 0 mm | 2.24 m/s, 14° | 0 W/m² | - |
| 1778058197 | 16.67° C | 81% | 1007.9 hPa | 0 mm | 1.79 m/s, 1° | 0 W/m² | - |
| 1778057893 | 16.67° C | 81% | 1007.9 hPa | 0 mm | 1.79 m/s, 0° | 0 W/m² | - |
| 1778057589 | 17.22° C | 82% | 1007.9 hPa | 0 mm | 1.34 m/s, 353° | 0 W/m² | - |
| 1778057286 | 17.22° C | 81% | 1007.7 hPa | 0 mm | 0 m/s | 0 W/m² | - |
| 1778056982 | 17.22° C | 82% | 1007.5 hPa | 0 mm | 1.34 m/s, 3° | 0 W/m² | - |
| 1778056679 | 17.22° C | 82% | 1007.8 hPa | 0 mm | 0.45 m/s, 4° | 0 W/m² | - |
| 1778056377 | 17.22° C | 82% | 1007.7 hPa | 0 mm | 1.79 m/s, 11° | 0 W/m² | - |
| 1778056074 | 17.22° C | 82% | 1007.7 hPa | 0 mm | 1.79 m/s, 358° | 0 W/m² | - |
| 1778055770 | 17.22° C | 82% | 1007.4 hPa | 0 mm | 2.68 m/s, 12° | 0 W/m² | - |
| 1778055467 | 17.22° C | 82% | 1007.8 hPa | 0 mm | 0.45 m/s, 4° | 0 W/m² | - |
| 1778055165 | 17.22° C | 82% | 1007.7 hPa | 0 mm | 0.45 m/s, 348° | 0 W/m² | - |
| 1778054863 | 17.22° C | 82% | 1007.7 hPa | 0 mm | 1.79 m/s, 4° | 0 W/m² | - |
| 1778054559 | 17.22° C | 82% | 1007.2 hPa | 0 mm | 2.68 m/s, 10° | 0 W/m² | - |
| 1778054257 | 17.22° C | 81% | 1007 hPa | 0 mm | 1.79 m/s, 31° | 0 W/m² | - |
| 1778053954 | 17.22° C | 82% | 1007.4 hPa | 0 mm | 2.24 m/s, 27° | 0 W/m² | - |
| 1778053651 | 17.22° C | 81% | 1007.1 hPa | 0 mm | 2.68 m/s, 1° | 0 W/m² | - |
| 1778053348 | 17.22° C | 82% | 1007.2 hPa | 0 mm | 3.13 m/s, 39° | 0 W/m² | - |
| 1778053046 | 17.22° C | 82% | 1007.1 hPa | 0 mm | 1.79 m/s, 25° | 0 W/m² | - |
* Rain latest hour (hover to see other rain measurements)
** Current wind speed in m/s (hover to see current wind gust speed)